Location: La Chapelle
(48.3135°N, 1.3085°W)
Time: 19:07:50
(UTC+00:00)

Cosmos 1602 - Pass Details

Date: 03 March 2021
Orbit: 512 x 534 km, 82.5° (Epoch: 14 April)

Event Time Altitude Azimuth Distance (km) Brightness Sun altitude
Rises 18:39:15 0° 184° (S) 2,650 7.4 -8.5°
Reaches altitude 10° 18:41:23 10° 182° (S) 1,770 6.4 -8.9°
Maximum altitude 18:45:15 75° 97° (E) 555 3.7 -9.5°
Drops below altitude 10° 18:49:12 10° 13° (NNE) 1,796 6.3 -10.2°
Sets 18:51:22 0° 11° (NNE) 2,694 7.2 -10.6°
